AGROMETEOROLOŠKI PORTAL

vinorodna pokrajina

Temelj dobrega kmetovanja

Pregled podatkov za lokacijo JERUZALEM - ARSO, meteorološka postaja 156

Pregled senzorjev na lokaciji

ID Ime Zadnja
vrednost
Datum in čas
meritve
(lokalni čas)
Tip
senzorja
5945 Padavine (mm) 0 mm 6.10.2022 05:00 ARSO
5947 Relativna zračna vlaga (2 m) (% RH) 89 % RH 6.10.2022 05:00 ARSO
5946 Temperatura (2 m) (°C) 12,1 °C 6.10.2022 05:00 ARSO

Pregled podatkov zadnjih 24 ur

Zap.
št.
Datum in čas
(lokalni čas)
JERUZALEM - ARSO
Padavine Relativna
zračna
vlaga
(2
m)
Temperatura
(2
m)
1 6.10.2022 05:00 0 88,7 12,1
2 6.10.2022 04:30 0 86,7 11,9
3 6.10.2022 04:00 0 84,7 11,6
4 6.10.2022 03:30 0 79,7 11,8
5 6.10.2022 03:00 0 75,5 13
6 6.10.2022 02:30 0 74,3 12,9
7 6.10.2022 02:00 0 74,3 12,5
8 6.10.2022 01:30 0 74,3 12,5
9 6.10.2022 01:00 0 75 12,6
10 6.10.2022 00:30 0 74,7 12,8
11 6.10.2022 00:00 0 73 13,1
12 5.10.2022 23:30 0 71,7 13,5
13 5.10.2022 23:00 0 72 13,6
14 5.10.2022 22:30 0 72,3 13,7
15 5.10.2022 22:00 0 74 13,9
16 5.10.2022 21:30 0 74,7 14
17 5.10.2022 21:00 0 73,3 14,3
18 5.10.2022 20:30 0 72,7 14,5
19 5.10.2022 20:00 0 72,3 14,8
20 5.10.2022 19:30 0 70 15,4
21 5.10.2022 19:00 0 69 15,7
22 5.10.2022 18:30 0 69,3 16
23 5.10.2022 18:00 0 66,7 16,8
24 5.10.2022 17:30 0 62,7 17,7
25 5.10.2022 17:00 0 60,3 18,1
26 5.10.2022 16:30 0 57 19,2
27 5.10.2022 16:00 0 56,3 19,3
28 5.10.2022 15:30 0 55 19,9
29 5.10.2022 15:00 0 54,5 19,5
30 5.10.2022 14:30 0 55 18,9
31 5.10.2022 14:00 0 53,7 19,2
32 5.10.2022 13:30 0 53,3 19
33 5.10.2022 13:00 0 52 18,7
34 5.10.2022 12:30 0 52,7 18
35 5.10.2022 12:00 0 59,7 17,3
36 5.10.2022 11:30 0 61,7 16,2
37 5.10.2022 11:00 0 64,7 15,6
38 5.10.2022 10:30 0 70,3 13,8
39 5.10.2022 10:00 0 73 12,5
40 5.10.2022 09:30 0 74 11,7
41 5.10.2022 09:00 0 73,3 11,1
42 5.10.2022 08:30 0 73,7 10,5
43 5.10.2022 08:00 0 76 10
44 5.10.2022 07:30 0 79,7 9,4
45 5.10.2022 07:00 0 81,3 9,3
46 5.10.2022 06:30 0 83 9,1